CONSULTA PERSONALIZADA Alfaro
      Predicción AEMET      
Valores extremos - medios de hoy
Fecha T (C) P (l/m2) Hr (%) Rs (W/m2) VV (km/h) DV Tint.(C)
Max Med Min Acu Med Med Max Med Max Med Min
 18-08-2018   26,0   18,9   13,1   0,0   59   335   36,7   270   28,3   24,5   21,5 
Datos de hoy
Fecha T (C) P (l/m2) Hr (%) Rs (W/m2) VV (km/h) DV Tint.(C)
Max Med Min Acu Med Med Max Med Max Med Min
 18-08-2018 22:30:00   20,3   20,1   19,9   0,0   62   0   16,9   320   28,3   28,2   28,0 
 18-08-2018 22:15:00   20,6   20,4   20,3   0,0   61   0   16,9   337   28,0   27,9   27,8 
 18-08-2018 22:00:00   20,8   20,7   20,6   0,0   60   0   21,2   346   27,8   27,7   27,6 
 18-08-2018 21:45:00   21,1   20,9   20,8   0,0   59   0   22,7   351   27,8   27,6   27,6 
 18-08-2018 21:30:00   21,4   21,2   21,1   0,0   57   0   21,2   356   27,7   27,6   27,5 
 18-08-2018 21:15:00   21,7   21,5   21,4   0,0   56   2   26,6   359   27,6   27,5   27,3 
 18-08-2018 21:00:00   22,2   21,9   21,7   0,0   53   12   27,4   2   27,7   27,4   27,1 
 18-08-2018 20:45:00   22,7   22,4   22,2   0,0   51   35   26,6   360   27,8   27,7   27,6 
 18-08-2018 20:30:00   23,2   22,9   22,6   0,0   48   76   28,1   1   27,9   27,8   27,7 
 18-08-2018 20:15:00   23,7   23,4   23,2   0,0   45   127   25,6   1   27,9   27,7   27,6 
 18-08-2018 20:00:00   24,1   23,8   23,7   0,0   43   174   27,4   0   27,8   27,7   27,6 
 18-08-2018 19:45:00   24,3   24,1   23,8   0,0   42   228   32,4   2   27,8   27,6   27,4 
 18-08-2018 19:30:00   24,9   24,3   24,0   0,0   41   285   29,9   359   27,8   27,7   27,6 
 18-08-2018 19:15:00   25,1   24,7   24,4   0,0   40   341   28,8   3   27,6   27,5   27,4 
 18-08-2018 19:00:00   25,0   24,7   24,4   0,0   40   396   27,0   2   27,6   27,5   27,4 
 18-08-2018 18:45:00   25,6   25,0   24,5   0,0   39   445   36,7   7   27,5   27,4   27,3 
 18-08-2018 18:30:00   25,6   25,2   24,9   0,0   38   494   30,6   8   27,4   27,3   27,2 
 18-08-2018 18:15:00   25,9   25,3   24,8   0,0   38   540   28,1   9   27,2   27,2   27,0 
 18-08-2018 18:00:00   25,8   25,3   24,8   0,0   37   587   27,4   6   27,0   27,0   26,9 
 18-08-2018 17:45:00   25,6   25,3   24,9   0,0   37   631   26,3   1   26,9   26,7   26,6 
 18-08-2018 17:30:00   25,7   25,2   24,6   0,0   37   676   28,1   12   26,6   26,5   26,5 
 18-08-2018 17:15:00   25,9   25,1   24,5   0,0   37   715   27,0   10   26,5   26,4   26,3 
 18-08-2018 17:00:00   25,8   25,2   24,9   0,0   36   754   21,2   356   26,3   26,2   26,1 
 18-08-2018 16:45:00   26,0   25,1   24,5   0,0   37   786   22,3   343   26,1   25,9   25,8 
 18-08-2018 16:30:00   25,5   24,9   24,5   0,0   38   809   25,9   347   25,8   25,7   25,6 
 18-08-2018 16:15:00   25,4   24,6   24,3   0,0   40   849   21,6   344   25,6   25,4   25,3 
 18-08-2018 16:00:00   25,1   24,5   23,9   0,0   40   874   21,6   350   25,3   25,2   25,0 
 18-08-2018 15:45:00   25,1   24,5   23,8   0,0   40   894   27,0   356   25,0   24,9   24,7 
 18-08-2018 15:30:00   24,7   24,0   23,4   0,0   42   914   20,5   352   24,7   24,6   24,5 
 18-08-2018 15:15:00   24,8   23,8   23,2   0,0   42   917   23,0   349   24,5   24,4   24,2 
 18-08-2018 15:00:00   24,3   23,7   23,1   0,0   43   942   21,6   344   24,2   24,1   24,1 
 18-08-2018 14:45:00   24,2   23,4   22,9   0,0   43   930   26,3   3   24,1   23,9   23,8 
 18-08-2018 14:30:00   23,9   22,9   22,4   0,0   44   970   26,6   321   23,8   23,6   23,5 
 18-08-2018 14:15:00   23,4   22,6   22,2   0,0   45   991   34,6   315   23,5   23,4   23,3 
 18-08-2018 14:00:00   22,8   22,2   21,6   0,0   46   956   34,2   310   23,3   23,2   23,1 
 18-08-2018 13:45:00   22,5   22,0   21,4   0,0   47   951   29,5   301   23,1   23,0   22,9 
 18-08-2018 13:30:00   21,8   21,3   20,9   0,0   48   945   35,3   304   22,9   22,9   22,9 
 18-08-2018 13:15:00   21,6   20,8   20,2   0,0   50   937   29,9   310   22,9   22,7   22,6 
 18-08-2018 13:00:00   21,1   20,6   20,3   0,0   50   892   31,3   304   22,6   22,6   22,5 
 18-08-2018 12:45:00   21,0   20,4   19,9   0,0   51   886   34,2   309   22,5   22,5   22,4 
 18-08-2018 12:30:00   20,5   19,8   19,5   0,0   53   689   32,4   311   22,4   22,4   22,3 
 18-08-2018 12:15:00   20,2   19,6   19,1   0,0   54   565   28,8   320   22,3   22,2   22,2 
 18-08-2018 12:00:00   19,6   19,0   18,6   0,0   56   562   29,2   311   22,2   22,1   22,0 
 18-08-2018 11:45:00   19,4   18,8   18,3   0,0   56   545   31,7   318   22,0   22,0   22,0 
 18-08-2018 11:30:00   19,0   18,6   18,2   0,0   56   615   29,5   317   22,0   21,9   21,9 
 18-08-2018 11:15:00   18,6   18,2   17,9   0,0   57   622   32,0   318   21,9   21,8   21,8 
 18-08-2018 11:00:00   18,4   18,0   17,7   0,0   58   669   29,9   330   21,8   21,7   21,7 
 18-08-2018 10:45:00   18,4   18,0   17,6   0,0   57   636   27,7   321   21,7   21,7   21,6 
 18-08-2018 10:30:00   17,8   17,6   17,4   0,0   58   602   31,7   316   21,6   21,6   21,6 
 18-08-2018 10:15:00   17,7   17,4   17,2   0,0   58   533   33,5   316   21,6   21,6   21,5 
 18-08-2018 10:00:00   17,6   17,2   17,0   0,0   59   481   31,0   320   21,6   21,5   21,5 
 18-08-2018 09:45:00   17,1   16,9   16,7   0,0   60   432   29,5   317   21,5   21,5   21,5 
 18-08-2018 09:30:00   17,0   16,8   16,5   0,0   62   384   27,4   317   21,6   21,6   21,5 
 18-08-2018 09:15:00   16,7   16,5   16,3   0,0   63   374   27,4   314   21,6   21,5   21,5 
 18-08-2018 09:00:00   16,4   16,1   15,9   0,0   65   288   26,6   323   21,6   21,6   21,5 
 18-08-2018 08:45:00   15,9   15,8   15,6   0,0   67   230   20,5   327   21,7   21,6   21,6 
 18-08-2018 08:30:00   15,8   15,7   15,5   0,0   67   123   22,7   320   21,8   21,8   21,7 
 18-08-2018 08:15:00   15,5   15,4   15,1   0,0   68   78   21,2   318   21,9   21,8   21,7 
 18-08-2018 08:00:00   15,2   15,1   15,0   0,0   69   77   19,8   316   22,1   21,9   21,9 
 18-08-2018 07:45:00   15,0   14,6   14,3   0,0   72   29   23,8   312   22,2   22,1   22,1 
 18-08-2018 07:30:00   14,3   14,2   14,0   0,0   74   6   18,4   315   22,3   22,2   22,2 
 18-08-2018 07:15:00   14,1   14,0   13,9   0,0   75   0   20,2   309   22,4   22,4   22,3 
 18-08-2018 07:00:00   13,9   13,7   13,3   0,0   77   0   19,4   306   22,5   22,5   22,4 
 18-08-2018 06:45:00   13,6   13,3   13,1   0,0   78   0   20,5   310   22,7   22,6   22,5 
 18-08-2018 06:30:00   13,6   13,4   13,2   0,0   78   0   20,9   306   22,9   22,8   22,7 
 18-08-2018 06:15:00   13,9   13,6   13,4   0,0   76   0   20,5   303   23,0   22,9   22,9 
 18-08-2018 06:00:00   13,9   13,7   13,6   0,0   76   0   21,2   300   23,1   23,1   23,0 
 18-08-2018 05:45:00   13,8   13,7   13,5   0,0   77   0   21,6   301   23,3   23,2   23,1 
 18-08-2018 05:30:00   13,5   13,4   13,3   0,0   79   0   22,7   304   23,3   23,3   23,3 
 18-08-2018 05:15:00   13,6   13,4   13,3   0,0   79   0   24,1   309   23,5   23,4   23,3 
 18-08-2018 05:00:00   13,7   13,6   13,5   0,0   78   0   26,3   309   23,7   23,6   23,5 
 18-08-2018 04:45:00   13,8   13,7   13,6   0,0   78   0   25,6   310   23,9   23,8   23,7 
 18-08-2018 04:30:00   13,8   13,6   13,5   0,0   78   0   22,3   310   24,1   23,9   23,9 
 18-08-2018 04:15:00   13,9   13,8   13,7   0,0   78   0   21,2   311   24,2   24,1   24,1 
 18-08-2018 04:00:00   13,9   13,8   13,7   0,0   78   0   22,7   314   24,4   24,2   24,2 
 18-08-2018 03:45:00   14,2   14,1   13,9   0,0   77   0   20,2   312   24,5   24,5   24,4 
 18-08-2018 03:30:00   14,3   14,2   14,1   0,0   76   0   23,8   310   24,6   24,6   24,5 
 18-08-2018 03:15:00   14,3   14,2   14,2   0,0   77   0   24,5   311   24,7   24,7   24,6 
 18-08-2018 03:00:00   14,7   14,6   14,3   0,0   76   0   23,0   313   24,9   24,8   24,7 
 18-08-2018 02:45:00   14,9   14,7   14,6   0,0   76   0   21,2   316   24,9   24,9   24,8 
 18-08-2018 02:30:00   15,0   14,9   14,8   0,0   76   0   23,8   315   25,1   25,0   24,9 
 18-08-2018 02:15:00   15,1   15,0   15,0   0,0   75   0   20,5   319   25,2   25,2   25,1 
 18-08-2018 02:00:00   15,4   15,2   15,1   0,0   74   0   22,7   312   25,5   25,3   25,2 
 18-08-2018 01:45:00   15,5   15,3   15,2   0,0   73   0   25,2   315   25,6   25,5   25,5 
 18-08-2018 01:30:00   15,5   15,4   15,4   0,0   71   0   23,8   317   25,7   25,6   25,5 
 18-08-2018 01:15:00   15,7   15,6   15,5   0,0   69   0   19,8   324   25,7   25,6   25,5 
 18-08-2018 01:00:00   15,7   15,6   15,5   0,0   69   0   19,1   323   25,9   25,9   25,7 
 18-08-2018 00:45:00   16,1   15,9   15,7   0,0   68   0   16,6   324   26,0   26,0   25,9 
 18-08-2018 00:30:00   16,3   16,2   16,1   0,0   66   0   16,9   330   26,0   26,0   25,9 
 18-08-2018 00:15:00   16,6   16,5   16,3   0,0   65   0   22,7   333   26,0   25,9   25,8 
 18-08-2018 00:00:00   16,7   16,6   16,5   0,0   65   0   22,0   331   26,2   26,1   25,9 
Datos diarios
Fecha desde Fecha hasta       Visualizar         Exportar Excel  
     
Alfaro - Fecha desde: 11-08-2018 - Fecha hasta: 17-08-2018
Fecha T (C) P (l/m2) Hr (%) Rs (W/m2) VV (km/h) DV Tint.(C)
Max Med Min Acu Med Med Max Med Max Med Min
 17-08-2018   24,7   20,3   16,5   0,0   64   260   52,6   294   29,9   26,8   25,0 
 16-08-2018   29,0   22,7   18,6   0,0   66   236   46,8   289   33,0   29,9   27,5 
 15-08-2018   30,2   22,2   15,7   0,0   56   336   34,9   225   33,4   27,2   23,4 
 14-08-2018   24,9   20,9   18,4   0,0   60   265   45,4   317   29,4   27,1   24,7 
 13-08-2018   28,5   22,0   17,6   0,0   66   312   46,8   261   31,0   28,6   26,0 
 12-08-2018   32,0   25,1   20,3   0,9   67   174   42,1   135   35,0   31,9   29,6 
 11-08-2018   32,1   24,3   17,2   0,0   57   316   28,8   180   35,2   30,1   26,2 
Datos mensuales
        Exportar      
   
Alfaro
Fecha T (C) P (l/m2) Hr (%) Rs (W/m2) VV (km/h) DV Tint.(C)
Max Med Min Acu Med Med Max Med Max Med Min
 Agosto -2018   36,5   24,3   14,5   0,9   57   296   52,6   242   38,8   30,6   22,8 
 Julio -2018   35,7   23,7   14,9   6,2   60   330   70,9   247   37,6   30,0   22,6 
 Junio -2018   33,5   20,2   11,3   32,9   63   300   69,1   236   36,1   25,2   16,4 
 Mayo -2018   26,2   15,4   4,5   37,3   67   280   59,8   245   28,7   20,2   11,3 
 Abril -2018   25,2   13,2   2,2   107,6   68   223   65,2   192   27,5   17,5   7,0 
 Marzo -2018   19,2   9,3   1,0   41,0   66   172   76,0   217   21,6   12,0   4,0 
 Febrero -2018   17,7   5,6   -2,9   19,7   73   111   64,8   279   24,1   12,9   3,0 
 Enero -2018   17,9   7,7   -3,0   52,2   79   90   56,9   259   23,9   16,8   10,7 
 Diciembre -2017   16,9   6,7   -2,3   10,4   77   76   72,0   259   22,4   15,6   9,3 
 Noviembre -2017   20,1   9,9   -0,7   4,2   67   105   63,4   258   22,4   16,0   8,6 
 Octubre -2017   26,9   16,8   5,9   8,5   64   170   49,7   241   28,0   20,8   12,1 
 Septiembre-2017   29,9   18,0   8,0   5,5   63   219   51,8   230   34,0   22,9   15,4 
PARÁMETROS
Desc. Abr. Descripción
T Temperatura del aire
P Precipitación acumulada
Hr Humedad relativa del aire
Rs Radiación solar
VV Velocidad del viento
DV Dirección del viento
Tint Temperatura interior
 
FUNCIONES
Desc. Abr. Descripción
Max Máxima
Med Media
Min Mínima
Acu Acumulado